| time (UTC) | temp C | wind direction | speed KPH | gust KPH | rain 1hr cm | rain 24hr cm | rain mn cm | humidity % | barometer mb |
| 20260507153030 | 15 | 257 | 12.9 | 24.1 | 0.00 | 0.00 | 0.00 | 54 | 1015.5 |
| 20260507151521 | 14 | 266 | 12.9 | 25.7 | 0.00 | 0.00 | 0.00 | 57 | 1015.6 |
| 20260507150018 | 13 | 230 | 14.5 | 20.9 | 0.00 | 0.00 | 0.00 | 58 | 1015.6 |
| 20260507144514 | 12 | 280 | 14.5 | 25.7 | 0.00 | 0.00 | 0.00 | 62 | 1015.9 |
| 20260507143011 | 12 | 255 | 8.0 | 22.5 | 0.00 | 0.00 | 0.00 | 68 | 1016.2 |
| 20260507141507 | 11 | 256 | 11.3 | 19.3 | 0.00 | 0.00 | 0.00 | 73 | 1016.5 |
| 20260507140004 | 10 | 277 | 8.0 | 20.9 | 0.00 | 0.00 | 0.00 | 74 | 1016.7 |
| 20260507134602 | 10 | 250 | 11.3 | 20.9 | 0.00 | 0.00 | 0.00 | 77 | 1016.5 |
| 20260507133057 | 9 | 267 | 12.9 | 20.9 | 0.00 | 0.00 | 0.00 | 81 | 1016.8 |
| 20260507131557 | 8 | 254 | 8.0 | 19.3 | 0.00 | 0.00 | 0.00 | 85 | 1016.9 |
| 20260507130053 | 7 | 261 | 9.7 | 17.7 | 0.00 | 0.00 | 0.00 | 88 | 1016.8 |
| 20260507124555 | 6 | 250 | 6.4 | 14.5 | 0.00 | 0.00 | 0.00 | 89 | 1016.8 |
| 20260507123054 | 6 | 245 | 6.4 | 12.9 | 0.00 | 0.00 | 0.00 | 90 | 1016.8 |
| 20260507121551 | 5 | 244 | 8.0 | 11.3 | 0.00 | 0.00 | 0.00 | 92 | 1016.7 |
| 20260507120052 | 3 | 275 | 3.2 | 8.0 | 0.00 | 0.03 | 0.00 | 94 | 1016.7 |
| 20260507114549 | 3 | 251 | 1.6 | 6.4 | 0.00 | 0.03 | 0.00 | 92 | 1016.9 |
| 20260507113047 | 3 | 260 | 1.6 | 3.2 | 0.00 | 0.03 | 0.00 | 91 | 1016.8 |
| 20260507111547 | 3 | 252 | 1.6 | 8.0 | 0.00 | 0.03 | 0.00 | 91 | 1016.8 |
| 20260507110049 | 3 | 249 | 3.2 | 8.0 | 0.00 | 0.03 | 0.00 | 90 | 1016.8 |
| 20260507104542 | 3 | 267 | 3.2 | 4.8 | 0.00 | 0.03 | 0.00 | 91 | 1016.8 |
| 20260507103041 | 4 | 264 | 3.2 | 4.8 | 0.00 | 0.03 | 0.00 | 90 | 1016.8 |
| 20260507101557 | 4 | 263 | 3.2 | 8.0 | 0.00 | 0.03 | 0.00 | 90 | 1016.8 |
| 20260507100040 | 3 | 267 | 4.8 | 9.7 | 0.00 | 0.05 | 0.00 | 91 | 1017.0 |
| 20260507094543 | 3 | 252 | 3.2 | 8.0 | 0.00 | 0.05 | 0.00 | 90 | 1017.2 |
| 20260507093036 | 3 | 246 | 8.0 | 9.7 | 0.00 | 0.05 | 0.00 | 89 | 1017.3 |
| 20260507091550 | 4 | 268 | 3.2 | 6.4 | 0.00 | 0.05 | 0.00 | 90 | 1017.3 |
| 20260507090031 | 4 | 269 | 1.6 | 4.8 | 0.00 | 0.05 | 0.00 | 89 | 1017.3 |
| 20260507084529 | 5 | 270 | 1.6 | 4.8 | 0.00 | 0.05 | 0.00 | 89 | 1017.7 |
| 20260507083027 | 5 | 269 | 3.2 | 3.2 | 0.00 | 0.05 | 0.00 | 88 | 1017.9 |
| 20260507081535 | 5 | 271 | 1.6 | 6.4 | 0.00 | 0.05 | 0.00 | 89 | 1018.1 |
| 20260507080024 | 5 | 265 | 1.6 | 4.8 | 0.00 | 0.08 | 0.00 | 89 | 1018.4 |
| 20260507074525 | 5 | 275 | 1.6 | 3.2 | 0.00 | 0.08 | 0.00 | 87 | 1018.4 |
| 20260507073020 | 6 | 286 | 1.6 | 6.4 | 0.00 | 0.08 | 0.00 | 86 | 1018.3 |
| 20260507071518 | 6 | 280 | 1.6 | 4.8 | 0.00 | 0.08 | 0.00 | 85 | 1018.4 |
| 20260507070016 | 6 | 284 | 1.6 | 8.0 | 0.00 | 0.08 | 0.00 | 83 | 1018.4 |
| 20260507064515 | 6 | 301 | 3.2 | 8.0 | 0.00 | 0.08 | 0.00 | 83 | 1018.6 |
| 20260507063013 | 6 | 290 | 4.8 | 11.3 | 0.00 | 0.08 | 0.00 | 83 | 1018.9 |
| 20260507061526 | 6 | 280 | 6.4 | 9.7 | 0.00 | 0.08 | 0.00 | 83 | 1018.9 |
| 20260507060008 | 7 | 293 | 3.2 | 8.0 | 0.00 | 0.15 | 0.00 | 81 | 1018.8 |
| 20260507054505 | 7 | 280 | 3.2 | 8.0 | 0.00 | 0.15 | 0.00 | 81 | 1018.7 |
| 20260507053002 | 7 | 285 | 3.2 | 8.0 | 0.00 | 0.15 | 0.00 | 80 | 1018.5 |
| 20260507051558 | 8 | 290 | 1.6 | 4.8 | 0.00 | 0.15 | 0.00 | 79 | 1018.7 |
| 20260507050057 | 8 | 290 | 3.2 | 9.7 | 0.00 | 0.18 | 0.15 | 77 | 1018.9 |
| 20260507044601 | 9 | 289 | 1.6 | 8.0 | 0.00 | 0.18 | 0.15 | 78 | 1018.8 |
| 20260507043055 | 8 | 285 | 1.6 | 3.2 | 0.00 | 0.18 | 0.15 | 79 | 1018.6 |
| 20260507041554 | 9 | 284 | 1.6 | 3.2 | 0.00 | 0.18 | 0.15 | 79 | 1018.6 |
| 20260507040053 | 10 | 291 | 0.0 | 1.6 | 0.00 | 0.30 | 0.15 | 75 | 1018.5 |
| 20260507034553 | 9 | 307 | 3.2 | 6.4 | 0.00 | 0.30 | 0.15 | 74 | 1018.4 |
| 20260507033053 | 9 | 301 | 0.0 | 3.2 | 0.00 | 0.30 | 0.15 | 77 | 1018.7 |
| 20260507031552 | 9 | 285 | 0.0 | 3.2 | 0.00 | 0.30 | 0.15 | 76 | 1018.7 |
| 20260507030100 | 9 | 285 | 0.0 | 3.2 | 0.00 | 0.46 | 0.15 | 74 | 1018.5 |
| 20260507024551 | 10 | 290 | 0.0 | 1.6 | 0.00 | 0.46 | 0.15 | 70 | 1018.3 |
| 20260507023051 | 10 | 299 | 0.0 | 0.0 | 0.00 | 0.46 | 0.15 | 68 | 1017.9 |
| 20260507021607 | 10 | 299 | 0.0 | 0.0 | 0.00 | 0.46 | 0.15 | 65 | 1017.8 |
| 20260507020058 | 10 | 299 | 0.0 | 0.0 | 0.00 | 0.46 | 0.15 | 65 | 1017.8 |
| 20260507014610 | 11 | 299 | 0.0 | 3.2 | 0.00 | 0.46 | 0.15 | 64 | 1017.8 |
| 20260507013053 | 11 | 305 | 0.0 | 0.0 | 0.00 | 0.46 | 0.15 | 65 | 1017.8 |
| 20260507011548 | 11 | 309 | 0.0 | 3.2 | 0.00 | 0.46 | 0.15 | 65 | 1017.4 |
| 20260507010100 | 11 | 321 | 0.0 | 3.2 | 0.00 | 0.46 | 0.15 | 64 | 1017.3 |
| 20260507004548 | 12 | 307 | 0.0 | 6.4 | 0.00 | 0.46 | 0.15 | 61 | 1017.4 |
| 20260507003047 | 13 | 296 | 0.0 | 6.4 | 0.00 | 0.46 | 0.15 | 59 | 1017.3 |
| 20260507001551 | 13 | 360 | 0.0 | 9.7 | 0.00 | 0.46 | 0.15 | 56 | 1017.3 |
| 20260507000047 | 14 | 27 | 0.0 | 8.0 | 0.00 | 0.46 | 0.15 | 50 | 1017.3 |
| 20260506234546 | 15 | 302 | 6.4 | 12.9 | 0.00 | 0.46 | 0.15 | 48 | 1017.4 |
| 20260506233047 | 14 | 18 | 4.8 | 12.9 | 0.00 | 0.46 | 0.15 | 50 | 1017.5 |
| 20260506231545 | 13 | 312 | 3.2 | 9.7 | 0.00 | 0.46 | 0.15 | 50 | 1017.4 |
| 20260506230044 | 14 | 84 | 3.2 | 8.0 | 0.00 | 0.46 | 0.15 | 50 | 1017.4 |
| 20260506224543 | 14 | 78 | 3.2 | 9.7 | 0.00 | 0.46 | 0.15 | 52 | 1017.4 |
| 20260506223042 | 13 | 53 | 4.8 | 11.3 | 0.00 | 0.46 | 0.15 | 51 | 1017.4 |
| 20260506221544 | 13 | 271 | 0.0 | 9.7 | 0.00 | 0.46 | 0.15 | 52 | 1017.4 |
| 20260506220043 | 14 | 78 | 8.0 | 14.5 | 0.00 | 0.46 | 0.15 | 50 | 1017.4 |
| 20260506214544 | 13 | 5 | 1.6 | 12.9 | 0.00 | 0.46 | 0.15 | 55 | 1017.5 |
| 20260506213040 | 13 | 80 | 11.3 | 19.3 | 0.00 | 0.46 | 0.15 | 51 | 1017.4 |
| 20260506211540 | 13 | 22 | 0.0 | 14.5 | 0.00 | 0.46 | 0.15 | 52 | 1017.6 |
| 20260506210043 | 14 | 275 | 4.8 | 12.9 | 0.00 | 0.46 | 0.15 | 48 | 1017.9 |
| 20260506204539 | 13 | 55 | 0.0 | 14.5 | 0.00 | 0.46 | 0.15 | 50 | 1017.9 |
| 20260506203047 | 13 | 17 | 3.2 | 11.3 | 0.00 | 0.46 | 0.15 | 54 | 1018.1 |
| 20260506201545 | 13 | 34 | 3.2 | 8.0 | 0.00 | 0.46 | 0.15 | 54 | 1018.3 |
| 20260506200037 | 13 | 61 | 6.4 | 16.1 | 0.00 | 0.46 | 0.15 | 50 | 1018.3 |
| 20260506194545 | 14 | 57 | 3.2 | 9.7 | 0.00 | 0.46 | 0.15 | 52 | 1018.5 |
| 20260506193042 | 14 | 60 | 4.8 | 12.9 | 0.00 | 0.46 | 0.15 | 51 | 1018.5 |
| 20260506191533 | 13 | 78 | 6.4 | 16.1 | 0.00 | 0.46 | 0.15 | 51 | 1018.9 |
| 20260506190032 | 12 | 136 | 1.6 | 16.1 | 0.00 | 0.46 | 0.15 | 56 | 1018.9 |
| 20260506184530 | 12 | 88 | 4.8 | 17.7 | 0.00 | 0.46 | 0.15 | 58 | 1019.0 |
| 20260506183029 | 12 | 73 | 8.0 | 19.3 | 0.00 | 0.46 | 0.15 | 56 | 1019.0 |
| 20260506181528 | 12 | 94 | 14.5 | 20.9 | 0.00 | 0.46 | 0.15 | 54 | 1019.1 |
| 20260506180026 | 12 | 44 | 9.7 | 20.9 | 0.00 | 0.58 | 0.15 | 58 | 1019.2 |
| 20260506174523 | 12 | 57 | 9.7 | 16.1 | 0.00 | 0.58 | 0.15 | 62 | 1019.6 |
| 20260506173020 | 11 | 67 | 3.2 | 20.9 | 0.00 | 0.58 | 0.15 | 61 | 1019.6 |
| 20260506171520 | 11 | 44 | 6.4 | 16.1 | 0.00 | 0.58 | 0.15 | 70 | 1019.7 |
| 20260506170017 | 11 | 136 | 3.2 | 12.9 | 0.00 | 0.58 | 0.15 | 71 | 1019.6 |
| 20260506164515 | 10 | 69 | 1.6 | 11.3 | 0.00 | 0.58 | 0.15 | 80 | 1019.7 |
| 20260506163029 | 10 | 65 | 6.4 | 14.5 | 0.00 | 0.58 | 0.15 | 76 | 1019.5 |
| 20260506161511 | 10 | 49 | 1.6 | 11.3 | 0.00 | 0.58 | 0.15 | 82 | 1019.4 |
| 20260506160012 | 8 | 51 | 3.2 | 8.0 | 0.00 | 0.58 | 0.15 | 85 | 1019.7 |
| 20260506154504 | 8 | 281 | 1.6 | 9.7 | 0.00 | 0.58 | 0.15 | 84 | 1019.7 |